This is the latest recevied weather packets stored in our database for station/object SP9TKN-1. If no packets are shown the sender has not sent any weather packets the latest 10 day(s).
| Time | Temp. | Humidity | Pressure | Rain* | Wind** | Luminosity | Snow |
|---|---|---|---|---|---|---|---|
| 1777913171 | 21.67° C | 30% | 1013.1 hPa | - | - | - | - |
| 1777912272 | 21.67° C | 29% | 1013.1 hPa | - | - | - | - |
| 1777911372 | 22.22° C | 28% | 1013.1 hPa | - | - | - | - |
| 1777910470 | 22.22° C | 29% | 1013.1 hPa | - | - | - | - |
| 1777909572 | 22.22° C | 32% | 1013.3 hPa | - | - | - | - |
| 1777908673 | 22.78° C | 30% | 1013.3 hPa | - | - | - | - |
| 1777907771 | 23.33° C | 30% | 1013.3 hPa | - | - | - | - |
| 1777906870 | 23.89° C | 28% | 1013.2 hPa | - | - | - | - |
| 1777905971 | 23.33° C | 28% | 1013.4 hPa | - | - | - | - |
| 1777905070 | 23.33° C | 26% | 1013.5 hPa | - | - | - | - |
| 1777904170 | 23.89° C | 29% | 1013.5 hPa | - | - | - | - |
| 1777903271 | 23.33° C | 30% | 1013.6 hPa | - | - | - | - |
| 1777902371 | 23.33° C | 26% | 1013.8 hPa | - | - | - | - |
| 1777901471 | 23.89° C | 26% | 1014 hPa | - | - | - | - |
| 1777900572 | 23.33° C | 27% | 1014.3 hPa | - | - | - | - |
| 1777899676 | 23.33° C | 28% | 1014.4 hPa | - | - | - | - |
| 1777898771 | 22.78° C | 27% | 1014.4 hPa | - | - | - | - |
| 1777897870 | 22.78° C | 27% | 1014.5 hPa | - | - | - | - |
| 1777896970 | 22.78° C | 30% | 1014.6 hPa | - | - | - | - |
| 1777896070 | 23.33° C | 31% | 1014.8 hPa | - | - | - | - |
| 1777895170 | 23.89° C | 25% | 1014.8 hPa | - | - | - | - |
| 1777894270 | 23.89° C | 25% | 1015 hPa | - | - | - | - |
| 1777892470 | 23.33° C | 25% | 1015.2 hPa | - | - | - | - |
| 1777891570 | 23.33° C | 24% | 1015.4 hPa | - | - | - | - |
| 1777890672 | 23.33° C | 25% | 1015.5 hPa | - | - | - | - |
* Rain since midnight (hover to see other rain measurements)
** Current wind speed in m/s (hover to see current wind gust speed)